Weather History for KPWK - April, 2014

Change the Weather History Date:

Sunday, April 13, 2014

  Actual Average Record
Temperature  
Mean Temperature 55 °F 47 °F  
Max Temperature 69 °F 57 °F 78 °F (2006)
Min Temperature 40 °F 37 °F 29 °F (2004)
Degree Days  
Heating Degree Days 10 18  
Month to date heating degree days 236 264  
Since 1 July heating degree days 6642 5855  
Cooling Degree Days 0 0  
Month to date cooling degree days 0 0  
Year to date cooling degree days 0 0  
Growing Degree Days 2 (Base 50)    
Moisture  
Dew Point 46 °F    
Average Humidity 85    
Maximum Humidity 97    
Minimum Humidity 63    
Precipitation  
Precipitation 0.45 in 0.08 in 0.45 in (2014)
Month to date precipitation 1.03 1.03  
Year to date precipitation 3.71 5.86  
Sea Level Pressure  
Sea Level Pressure 29.67 in    
Wind  
Wind Speed 9 mph (East)    
Max Wind Speed 31 mph    
Max Gust Speed 41 mph    
Visibility 7 miles    
Events Rain    
T = Trace of Precipitation, MM = Missing Value Source: NWS Daily Summary

Daily Weather History Graph

Daily Weather History Graph

Search for Another Location

Airport or City:

Trip Planner

Search our weather history database for the weather conditions in past years. The results will help you decide how hot, cold, wet, or windy it might be!

Date:

Astronomy

Apr. 13, 2014 Rise Set
Actual Time 6:14 AM CDT 7:30 PM CDT
Civil Twilight 5:45 AM CDT 7:59 PM CDT
Nautical Twilight 5:10 AM CDT 8:34 PM CDT
Astronomical Twilight 4:34 AM CDT 9:11 PM CDT
Moon 6:07 PM CDT (4/13) 5:14 AM CDT (4/13)
Length of Visible Light 14h 14m
Length of Day
13h 16m
Waxing Gibbous, 97% of the Moon is Illuminated
Apr 13
Waxing Gibbous
Apr 15
Full
Apr 22
Last Quarter
Apr 29
New
May 6
First Quarter

Hourly Weather History & Observations

Time (CDT) Temp. Windchill Dew Point Humidity Pressure Visibility Wind Dir Wind Speed Gust Speed Precip Events Conditions
12:52 AM 66.0 °F - 53.1 °F 63% 29.68 in 10.0 mi South 15.0 mph - N/A   Clear
1:52 AM 66.9 °F - 54.0 °F 63% 29.69 in 10.0 mi SSW 15.0 mph 20.7 mph N/A   Clear
2:52 AM 66.0 °F - 54.0 °F 65% 29.65 in 10.0 mi SSW 16.1 mph - N/A   Mostly Cloudy
3:52 AM 64.0 °F - 55.0 °F 73% 29.66 in 10.0 mi SW 10.4 mph - 0.01 in Rain Light Rain
4:52 AM 64.0 °F - 55.0 °F 73% 29.66 in 10.0 mi SW 6.9 mph - 0.00 in   Clear
5:52 AM 57.9 °F - 53.1 °F 84% 29.66 in 10.0 mi NW 5.8 mph - N/A   Clear
6:52 AM 62.1 °F - 54.0 °F 75% 29.67 in 10.0 mi SSW 9.2 mph - N/A   Clear
7:52 AM 59.0 °F - 54.0 °F 83% 29.73 in 10.0 mi WSW 4.6 mph - N/A   Scattered Clouds
8:52 AM 62.1 °F - 54.0 °F 75% 29.71 in 10.0 mi WSW 8.1 mph - N/A   Partly Cloudy
9:52 AM 66.0 °F - 54.0 °F 65% 29.73 in 10.0 mi SW 6.9 mph - N/A   Clear
10:52 AM 62.1 °F - 51.1 °F 67% 29.73 in 10.0 mi North - - N/A   Clear
11:52 AM 50.0 °F - 44.1 °F 80% 29.80 in 6.0 mi NE 9.2 mph - N/A   Haze
12:15 PM 48.0 °F - 44.1 °F 86% 29.80 in 6.0 mi ENE 12.7 mph - N/A   Mostly Cloudy
12:52 PM 46.9 °F - 44.1 °F 90% 29.79 in 3.0 mi ENE 8.1 mph 16.1 mph N/A   Overcast
12:57 PM 46.9 °F - 44.1 °F 90% 29.78 in 1.2 mi ENE 8.1 mph - N/A   Overcast
1:13 PM 48.0 °F - 44.1 °F 86% 29.78 in 3.0 mi East 9.2 mph - N/A   Overcast
1:31 PM 48.0 °F - 44.1 °F 86% 29.77 in 9.0 mi East 10.4 mph - N/A   Overcast
1:52 PM 48.9 °F - 45.0 °F 86% 29.77 in 10.0 mi East 6.9 mph - N/A   Overcast
2:52 PM 48.9 °F - 46.0 °F 90% 29.75 in 9.0 mi ENE 5.8 mph - N/A   Overcast
3:00 PM 48.9 °F - 46.0 °F 90% 29.74 in 2.0 mi NE 10.4 mph - 0.01 in Rain Light Rain
3:24 PM 48.0 °F - 46.0 °F 93% 29.73 in 2.0 mi East 5.8 mph - 0.01 in Rain Light Rain
3:52 PM 46.9 °F - 45.0 °F 93% 29.71 in 2.0 mi ENE 5.8 mph - 0.02 in   Overcast
4:08 PM 46.9 °F - 45.0 °F 93% 29.72 in 2.0 mi East 6.9 mph - 0.07 in Rain Heavy Rain
4:33 PM 45.0 °F 40.6 °F 44.1 °F 97% 29.70 in 2.0 mi East 8.1 mph - 0.09 in Rain Light Rain
4:52 PM 45.0 °F 43.5 °F 43.0 °F 93% 29.69 in 2.0 mi Variable 3.5 mph - 0.09 in Rain Light Rain
4:59 PM 45.0 °F 40.1 °F 43.0 °F 93% 29.67 in 8.0 mi NE 9.2 mph - 0.00 in   Overcast
5:52 PM 43.0 °F 37.7 °F 41.0 °F 93% 29.64 in 9.0 mi NE 9.2 mph - 0.04 in Rain Light Rain
6:43 PM 41.0 °F 37.1 °F 39.9 °F 96% 29.64 in 5.0 mi NE 5.8 mph - 0.04 in Rain Rain
6:57 PM 41.0 °F 33.9 °F 39.0 °F 93% 29.57 in 3.0 mi ENE 12.7 mph - 0.01 in Rain Light Rain
7:22 PM 39.9 °F 33.9 °F 37.9 °F 93% 29.58 in 10.0 mi NNE 9.2 mph - 0.02 in   Overcast
7:52 PM 39.9 °F 36.7 °F 37.9 °F 93% 29.60 in 5.0 mi ENE 4.6 mph - 0.03 in Rain Light Rain
8:52 PM 41.0 °F 38.0 °F 39.0 °F 93% 29.54 in - Variable 4.6 mph - 0.13 in Rain Light Rain
9:08 PM 41.0 °F 39.0 °F 39.0 °F 93% 29.53 in - Variable 3.5 mph - 0.00 in Rain Light Rain
9:52 PM 42.1 °F - 41.0 °F 96% 29.52 in - Calm Calm - 0.02 in Rain Light Rain
10:50 PM 44.6 °F - 42.8 °F 93% 29.48 in - Calm Calm - 0.00 in   Mostly Cloudy
10:52 PM 44.1 °F - 42.1 °F 93% 29.48 in - Calm Calm - 0.00 in   Mostly Cloudy
11:52 PM 66.0 °F - 59.0 °F 78% 29.44 in 10.0 mi South 25.3 mph 31.1 mph 0.01 in   Overcast